"Period start","avg(HW err(1)/warn(2) (#))","avg(Visibility (m))","avg(Weather code (#))","avg(Precip intensity (mm/h))","min(HW err(1)/warn(2) (#))","max(HW err(1)/warn(2) (#))","std(HW err(1)/warn(2) (#))","med(HW err(1)/warn(2) (#))","min(Visibility (m))","max(Visibility (m))","std(Visibility (m))","med(Visibility (m))","min(Weather code (#))","max(Weather code (#))","std(Weather code (#))","med(Weather code (#))","min(Precip intensity (mm/h))","max(Precip intensity (mm/h))","std(Precip intensity (mm/h))","med(Precip intensity (mm/h))"
2013-08-10 00:00:00,0,46980,0,0.00,0,0,0,0,41235,50000,3209,47508,0,0,0,0,0.00,0.00,0.00,0.00
2013-08-10 00:10:00,0,35424,0,0.00,0,0,0,0,16652,45664,8921,38412,0,0,0,0,0.00,0.00,0.00,0.00
2013-08-10 00:20:00,0,43719,0,0.00,0,0,0,0,35690,50000,3683,43812,0,0,0,0,0.00,0.00,0.00,0.00
2013-08-10 00:30:00,0,43462,0,0.00,0,0,0,0,31833,50000,6190,44552,0,0,0,0,0.00,0.00,0.00,0.00
2013-08-10 00:40:00,0,39356,0,0.00,0,0,0,0,31126,48183,5994,36970,0,0,0,0,0.00,0.00,0.00,0.00
2013-08-10 00:50:00,0,44104,0,0.00,0,0,0,0,34736,50000,4550,44288,0,0,0,0,0.00,0.00,0.00,0.00
2013-08-10 01:00:00,0,35474,0,0.00,0,0,0,0,30262,44017,4940,33510,0,0,0,0,0.00,0.00,0.00,0.00
2013-08-10 01:10:00,0,39632,0,0.00,0,0,0,0,31201,46423,4536,39504,0,0,0,0,0.00,0.00,0.00,0.00
2013-08-10 01:20:00,0,40501,0,0.00,0,0,0,0,31864,50000,6293,38207,0,0,0,0,0.00,0.00,0.00,0.00
2013-08-10 01:30:00,0,37396,0,0.00,0,0,0,0,26699,50000,8068,36123,0,0,0,0,0.00,0.00,0.00,0.00
2013-08-10 01:40:00,0,41174,0,0.00,0,0,0,0,27343,50000,6906,42620,0,0,0,0,0.00,0.00,0.00,0.00
2013-08-10 01:50:00,0,36964,0,0.00,0,0,0,0,22592,47314,8453,38276,0,0,0,0,0.00,0.00,0.00,0.00
2013-08-10 02:00:00,0,35639,0,0.00,0,0,0,0,21782,48040,8436,35528,0,0,0,0,0.00,0.00,0.00,0.00
2013-08-10 02:10:00,0,32139,0,0.00,0,0,0,0,26185,42021,4939,29877,0,0,0,0,0.00,0.00,0.00,0.00
2013-08-10 02:20:00,0,37275,0,0.00,0,0,0,0,25311,50000,6890,37700,0,0,0,0,0.00,0.00,0.00,0.00
2013-08-10 02:30:00,0,41735,0,0.00,0,0,0,0,28472,50000,6633,41484,0,0,0,0,0.00,0.00,0.00,0.00
2013-08-10 02:40:00,0,42417,0,0.00,0,0,0,0,24940,50000,8047,45092,0,0,0,0,0.00,0.00,0.00,0.00
2013-08-10 02:50:00,0,46310,0,0.00,0,0,0,0,40616,50000,2993,46985,0,0,0,0,0.00,0.00,0.00,0.00
2013-08-10 03:00:00,0,41034,0,0.00,0,0,0,0,32761,47864,4115,42034,0,0,0,0,0.00,0.00,0.00,0.00
2013-08-10 03:10:00,0,40647,0,0.00,0,0,0,0,33836,49066,4854,40776,0,0,0,0,0.00,0.00,0.00,0.00
2013-08-10 03:20:00,0,42117,0,0.00,0,0,0,0,23246,50000,7479,44006,0,0,0,0,0.00,0.00,0.00,0.00
2013-08-10 03:30:00,0,40183,0,0.00,0,0,0,0,23776,50000,9459,44330,0,0,0,0,0.00,0.00,0.00,0.00
2013-08-10 03:40:00,0,39980,0,0.00,0,0,0,0,28228,50000,7246,37988,0,0,0,0,0.00,0.00,0.00,0.00
2013-08-10 03:50:00,0,36329,0,0.00,0,0,0,0,27715,42986,4841,36976,0,0,0,0,0.00,0.00,0.00,0.00
2013-08-10 04:00:00,0,38760,0,0.00,0,0,0,0,31827,47163,5057,37174,0,0,0,0,0.00,0.00,0.00,0.00
2013-08-10 04:10:00,0,35729,0,0.00,0,0,0,0,21057,50000,7862,38327,0,0,0,0,0.00,0.00,0.00,0.00
2013-08-10 04:20:00,0,35006,0,0.00,0,0,0,0,14534,48332,10965,38040,0,0,0,0,0.00,0.00,0.00,0.00
2013-08-10 04:30:00,0,43762,0,0.00,0,0,0,0,34633,50000,5349,45468,0,0,0,0,0.00,0.00,0.00,0.00
2013-08-10 04:40:00,0,39360,0,0.00,0,0,0,0,19726,50000,8414,38512,0,0,0,0,0.00,0.00,0.00,0.00
2013-08-10 04:50:00,0,34588,0,0.00,0,0,0,0,20671,49664,9381,33682,0,0,0,0,0.00,0.00,0.00,0.00
2013-08-10 05:00:00,0,44617,0,0.00,0,0,0,0,32524,50000,5524,46374,0,0,0,0,0.00,0.00,0.00,0.00
2013-08-10 05:10:00,0,39227,0,0.00,0,0,0,0,31330,50000,5358,39316,0,0,0,0,0.00,0.00,0.00,0.00
2013-08-10 05:20:00,0,45304,0,0.00,0,0,0,0,39562,50000,3081,44884,0,0,0,0,0.00,0.00,0.00,0.00
2013-08-10 05:30:00,0,43218,0,0.00,0,0,0,0,33499,49284,5269,43884,0,0,0,0,0.00,0.00,0.00,0.00
2013-08-10 05:40:00,0,42168,0,0.00,0,0,0,0,26689,50000,7321,42149,0,0,0,0,0.00,0.00,0.00,0.00
2013-08-10 05:50:00,0,42302,0,0.00,0,0,0,0,30292,50000,6441,44728,0,0,0,0,0.00,0.00,0.00,0.00
2013-08-10 06:00:00,0,41343,0,0.00,0,0,0,0,33518,46685,4694,43266,0,0,0,0,0.00,0.00,0.00,0.00
2013-08-10 06:10:00,0,42184,0,0.00,0,0,0,0,35085,49003,4837,43774,0,0,0,0,0.00,0.00,0.00,0.00
2013-08-10 06:20:00,0,48583,0,0.00,0,0,0,0,40758,50000,2876,50000,0,0,0,0,0.00,0.00,0.00,0.00
2013-08-10 06:30:00,0,42098,0,0.00,0,0,0,0,34344,47722,3987,42725,0,0,0,0,0.00,0.00,0.00,0.00
2013-08-10 06:40:00,0,46601,0,0.00,0,0,0,0,40990,50000,3080,46662,0,0,0,0,0.00,0.00,0.00,0.00
2013-08-10 06:50:00,0,44532,0,0.00,0,0,0,0,36890,49762,3355,44378,0,0,0,0,0.00,0.00,0.00,0.00
2013-08-10 07:00:00,0,46309,0,0.00,0,0,0,0,39526,50000,3989,48260,0,0,0,0,0.00,0.00,0.00,0.00
2013-08-10 07:10:00,0,44776,0,0.00,0,0,0,0,37543,50000,4314,46675,0,0,0,0,0.00,0.00,0.00,0.00
2013-08-10 07:20:00,0,44736,0,0.00,0,0,0,0,34356,50000,5466,45399,0,0,0,0,0.00,0.00,0.00,0.00
2013-08-10 07:30:00,0,44351,0,0.00,0,0,0,0,36508,50000,4502,44978,0,0,0,0,0.00,0.00,0.00,0.00
2013-08-10 07:40:00,0,42424,0,0.00,0,0,0,0,32457,50000,5666,43376,0,0,0,0,0.00,0.00,0.00,0.00
2013-08-10 07:50:00,0,45572,0,0.00,0,0,0,0,36290,50000,4871,46850,0,0,0,0,0.00,0.00,0.00,0.00
2013-08-10 08:00:00,0,45079,0,0.00,0,0,0,0,31971,50000,5352,46441,0,0,0,0,0.00,0.00,0.00,0.00
2013-08-10 08:10:00,0,44858,0,0.00,0,0,0,0,35646,50000,4086,45622,0,0,0,0,0.00,0.00,0.00,0.00
2013-08-10 08:20:00,0,46453,0,0.00,0,0,0,0,40329,50000,3699,47241,0,0,0,0,0.00,0.00,0.00,0.00
2013-08-10 08:30:00,0,47920,0,0.00,0,0,0,0,42169,50000,2450,48591,0,0,0,0,0.00,0.00,0.00,0.00
2013-08-10 08:40:00,0,45566,0,0.00,0,0,0,0,37709,50000,4758,48009,0,0,0,0,0.00,0.00,0.00,0.00
2013-08-10 08:50:00,0,47808,0,0.00,0,0,0,0,43297,50000,2572,49426,0,0,0,0,0.00,0.00,0.00,0.00
2013-08-10 09:00:00,0,42729,0,0.00,0,0,0,0,36812,48736,4179,43029,0,0,0,0,0.00,0.00,0.00,0.00
2013-08-10 09:10:00,0,44618,0,0.00,0,0,0,0,39619,48698,3173,44436,0,0,0,0,0.00,0.00,0.00,0.00
2013-08-10 09:20:00,0,42497,0,0.00,0,0,0,0,33448,50000,5595,42725,0,0,0,0,0.00,0.00,0.00,0.00
2013-08-10 09:30:00,0,49400,0,0.00,0,0,0,0,44725,50000,1565,50000,0,0,0,0,0.00,0.00,0.00,0.00
2013-08-10 09:40:00,0,48883,0,0.00,0,0,0,0,44773,50000,1811,50000,0,0,0,0,0.00,0.00,0.00,0.00
2013-08-10 09:50:00,0,49898,0,0.00,0,0,0,0,48978,50000,307,50000,0,0,0,0,0.00,0.00,0.00,0.00
2013-08-10 10:00:00,0,49839,0,0.00,0,0,0,0,49167,50000,323,50000,0,0,0,0,0.00,0.00,0.00,0.00
2013-08-10 10:10:00,0,49589,0,0.00,0,0,0,0,46213,50000,1129,50000,0,0,0,0,0.00,0.00,0.00,0.00
2013-08-10 10:20:00,0,46038,0,0.00,0,0,0,0,39854,50000,3650,46804,0,0,0,0,0.00,0.00,0.00,0.00
2013-08-10 10:30:00,0,48256,0,0.00,0,0,0,0,44748,50000,1974,49313,0,0,0,0,0.00,0.00,0.00,0.00
2013-08-10 10:40:00,0,44528,0,0.00,0,0,0,0,30707,50000,6412,46816,0,0,0,0,0.00,0.00,0.00,0.00
2013-08-10 10:50:00,0,46450,0,0.00,0,0,0,0,36364,50000,4583,49670,0,0,0,0,0.00,0.00,0.00,0.00
2013-08-10 11:00:00,0,49332,0,0.00,0,0,0,0,46096,50000,1242,50000,0,0,0,0,0.00,0.00,0.00,0.00
2013-08-10 11:10:00,0,47623,0,0.00,0,0,0,0,39990,50000,3309,49150,0,0,0,0,0.00,0.00,0.00,0.00
2013-08-10 11:20:00,0,46130,0,0.00,0,0,0,0,39786,50000,3399,47485,0,0,0,0,0.00,0.00,0.00,0.00
2013-08-10 11:30:00,0,37586,0,0.00,0,0,0,0,19787,50000,10731,42570,0,0,0,0,0.00,0.00,0.00,0.00
2013-08-10 11:40:00,0,43176,0,0.00,0,0,0,0,13191,50000,11063,48344,0,0,0,0,0.00,0.00,0.00,0.00
2013-08-10 11:50:00,0,48829,0,0.00,0,0,0,0,44683,50000,1959,50000,0,0,0,0,0.00,0.00,0.00,0.00
2013-08-10 12:00:00,0,40366,0,0.00,0,0,0,0,19199,50000,8861,43966,0,0,0,0,0.00,0.00,0.00,0.00
2013-08-10 12:10:00,0,49227,0,0.00,0,0,0,0,46729,50000,1148,50000,0,0,0,0,0.00,0.00,0.00,0.00
2013-08-10 12:20:00,0,42431,0,0.00,0,0,0,0,15785,50000,12384,50000,0,0,0,0,0.00,0.00,0.00,0.00
2013-08-10 12:30:00,0,47342,0,0.00,0,0,0,0,37727,50000,4778,50000,0,0,0,0,0.00,0.00,0.00,0.00
2013-08-10 12:40:00,0,50000,0,0.00,0,0,0,0,50000,50000,0,50000,0,0,0,0,0.00,0.00,0.00,0.00
2013-08-10 12:50:00,0,50000,0,0.00,0,0,0,0,50000,50000,0,50000,0,0,0,0,0.00,0.00,0.00,0.00
2013-08-10 13:00:00,0,50000,0,0.00,0,0,0,0,50000,50000,0,50000,0,0,0,0,0.00,0.00,0.00,0.00
2013-08-10 13:10:00,0,50000,0,0.00,0,0,0,0,50000,50000,0,50000,0,0,0,0,0.00,0.00,0.00,0.00
2013-08-10 13:20:00,0,50000,0,0.00,0,0,0,0,50000,50000,0,50000,0,0,0,0,0.00,0.00,0.00,0.00
2013-08-10 13:30:00,0,50000,0,0.00,0,0,0,0,50000,50000,0,50000,0,0,0,0,0.00,0.00,0.00,0.00
2013-08-10 13:40:00,0,50000,0,0.00,0,0,0,0,50000,50000,0,50000,0,0,0,0,0.00,0.00,0.00,0.00
2013-08-10 13:50:00,0,50000,0,0.00,0,0,0,0,50000,50000,0,50000,0,0,0,0,0.00,0.00,0.00,0.00
2013-08-10 14:00:00,0,49926,0,0.00,0,0,0,0,49263,50000,221,50000,0,0,0,0,0.00,0.00,0.00,0.00
2013-08-10 14:10:00,0,50000,0,0.00,0,0,0,0,50000,50000,0,50000,0,0,0,0,0.00,0.00,0.00,0.00
2013-08-10 14:20:00,0,50000,0,0.00,0,0,0,0,50000,50000,0,50000,0,0,0,0,0.00,0.00,0.00,0.00
2013-08-10 14:30:00,0,50000,0,0.00,0,0,0,0,50000,50000,0,50000,0,0,0,0,0.00,0.00,0.00,0.00
2013-08-10 14:40:00,0,49955,0,0.00,0,0,0,0,49554,50000,134,50000,0,0,0,0,0.00,0.00,0.00,0.00
2013-08-10 14:50:00,0,50000,0,0.00,0,0,0,0,50000,50000,0,50000,0,0,0,0,0.00,0.00,0.00,0.00
2013-08-10 15:00:00,0,50000,0,0.00,0,0,0,0,50000,50000,0,50000,0,0,0,0,0.00,0.00,0.00,0.00
2013-08-10 15:10:00,0,49786,0,0.00,0,0,0,0,47861,50000,642,50000,0,0,0,0,0.00,0.00,0.00,0.00
2013-08-10 15:20:00,0,50000,0,0.00,0,0,0,0,50000,50000,0,50000,0,0,0,0,0.00,0.00,0.00,0.00
2013-08-10 15:30:00,0,50000,0,0.00,0,0,0,0,50000,50000,0,50000,0,0,0,0,0.00,0.00,0.00,0.00
2013-08-10 15:40:00,0,50000,0,0.00,0,0,0,0,50000,50000,0,50000,0,0,0,0,0.00,0.00,0.00,0.00
2013-08-10 15:50:00,0,50000,0,0.00,0,0,0,0,50000,50000,0,50000,0,0,0,0,0.00,0.00,0.00,0.00
2013-08-10 16:00:00,0,50000,0,0.00,0,0,0,0,50000,50000,0,50000,0,0,0,0,0.00,0.00,0.00,0.00
2013-08-10 16:10:00,0,49932,0,0.00,0,0,0,0,49318,50000,205,50000,0,0,0,0,0.00,0.00,0.00,0.00
2013-08-10 16:20:00,0,50000,0,0.00,0,0,0,0,50000,50000,0,50000,0,0,0,0,0.00,0.00,0.00,0.00
2013-08-10 16:30:00,0,49719,0,0.00,0,0,0,0,47190,50000,843,50000,0,0,0,0,0.00,0.00,0.00,0.00
2013-08-10 16:40:00,0,49986,0,0.00,0,2,1,0,49859,50000,42,50000,0,0,0,0,0.00,0.00,0.00,0.00
2013-08-10 16:50:00,2,47515,0,0.00,2,2,0,2,41612,50000,3153,49444,0,0,0,0,0.00,0.00,0.00,0.00
2013-08-10 17:00:00,2,49802,0,0.00,2,2,0,2,48803,50000,406,50000,0,0,0,0,0.00,0.00,0.00,0.00
2013-08-10 17:10:00,2,48919,0,0.00,2,2,0,2,45423,50000,1516,49869,0,0,0,0,0.00,0.00,0.00,0.00
2013-08-10 17:20:00,2,49984,0,0.00,2,2,0,2,49836,50000,49,50000,0,0,0,0,0.00,0.00,0.00,0.00
2013-08-10 17:30:00,2,50000,0,0.00,2,2,0,2,50000,50000,0,50000,0,0,0,0,0.00,0.00,0.00,0.00
2013-08-10 17:40:00,2,49648,0,0.00,2,2,0,2,47914,50000,718,50000,0,0,0,0,0.00,0.00,0.00,0.00
2013-08-10 17:50:00,2,50000,0,0.00,2,2,0,2,50000,50000,0,50000,0,0,0,0,0.00,0.00,0.00,0.00
2013-08-10 18:00:00,2,49501,0,0.00,2,2,0,2,46847,50000,989,50000,0,0,0,0,0.00,0.00,0.00,0.00
2013-08-10 18:10:00,2,49959,0,0.00,2,2,0,2,49590,50000,123,50000,0,0,0,0,0.00,0.00,0.00,0.00
2013-08-10 18:20:00,2,49982,0,0.00,2,2,0,2,49820,50000,54,50000,0,0,0,0,0.00,0.00,0.00,0.00
2013-08-10 18:30:00,2,49842,0,0.00,2,2,0,2,48425,50000,472,50000,0,0,0,0,0.00,0.00,0.00,0.00
2013-08-10 18:40:00,2,46423,0,0.00,2,2,0,2,39852,50000,3567,47136,0,0,0,0,0.00,0.00,0.00,0.00
2013-08-10 18:50:00,2,48222,0,0.00,2,2,0,2,43423,50000,2237,49304,0,0,0,0,0.00,0.00,0.00,0.00
2013-08-10 19:00:00,2,49351,0,0.00,2,2,0,2,47532,50000,999,50000,0,0,0,0,0.00,0.00,0.00,0.00
2013-08-10 19:10:00,2,49928,0,0.00,2,2,0,2,49567,50000,147,50000,0,0,0,0,0.00,0.00,0.00,0.00
2013-08-10 19:20:00,2,49937,0,0.00,2,2,0,2,49371,50000,189,50000,0,0,0,0,0.00,0.00,0.00,0.00
2013-08-10 19:30:00,2,49549,0,0.00,2,2,0,2,47294,50000,804,50000,0,0,0,0,0.00,0.00,0.00,0.00
2013-08-10 19:40:00,2,46976,0,0.00,2,2,0,2,38065,50000,4505,49636,0,0,0,0,0.00,0.00,0.00,0.00
2013-08-10 19:50:00,2,47170,0,0.00,2,2,0,2,42863,50000,2800,47591,0,0,0,0,0.00,0.00,0.00,0.00
2013-08-10 20:00:00,2,49406,0,0.00,2,2,0,2,47425,50000,845,50000,0,0,0,0,0.00,0.00,0.00,0.00
2013-08-10 20:10:00,2,49242,0,0.00,2,2,0,2,46008,50000,1519,50000,0,0,0,0,0.00,0.00,0.00,0.00
2013-08-10 20:20:00,2,49723,0,0.00,2,2,0,2,47231,50000,831,50000,0,0,0,0,0.00,0.00,0.00,0.00
2013-08-10 20:30:00,2,49922,0,0.00,2,2,0,2,49216,50000,235,50000,0,0,0,0,0.00,0.00,0.00,0.00
2013-08-10 20:40:00,2,49615,0,0.00,0,2,1,2,48131,50000,721,50000,0,0,0,0,0.00,0.00,0.00,0.00
2013-08-10 20:50:00,0,49770,0,0.00,0,2,1,0,48473,50000,490,50000,0,0,0,0,0.00,0.00,0.00,0.00
2013-08-10 21:00:00,0,46548,0,0.00,0,0,0,0,32672,50000,5899,50000,0,0,0,0,0.00,0.00,0.00,0.00
2013-08-10 21:10:00,0,49917,0,0.00,0,0,0,0,49265,50000,219,50000,0,0,0,0,0.00,0.00,0.00,0.00
2013-08-10 21:20:00,0,45646,0,0.00,0,0,0,0,36141,50000,5143,48618,0,0,0,0,0.00,0.00,0.00,0.00
2013-08-10 21:30:00,0,48954,0,0.00,0,0,0,0,46054,50000,1460,50000,0,0,0,0,0.00,0.00,0.00,0.00
2013-08-10 21:40:00,0,47928,0,0.00,0,0,0,0,39661,50000,3436,50000,0,0,0,0,0.00,0.00,0.00,0.00
2013-08-10 21:50:00,0,46367,0,0.00,0,0,0,0,42329,50000,2921,47126,0,0,0,0,0.00,0.00,0.00,0.00
2013-08-10 22:00:00,0,45425,0,0.00,0,0,0,0,35284,50000,5648,49110,0,0,0,0,0.00,0.00,0.00,0.00
2013-08-10 22:10:00,0,46376,0,0.00,0,0,0,0,42443,50000,2399,45756,0,0,0,0,0.00,0.00,0.00,0.00
2013-08-10 22:20:00,0,44980,0,0.00,0,2,1,0,38771,50000,3513,45238,0,0,0,0,0.00,0.00,0.00,0.00
2013-08-10 22:30:00,1,43564,0,0.00,0,2,1,0,32177,50000,5470,43891,0,0,0,0,0.00,0.00,0.00,0.00
2013-08-10 22:40:00,0,43993,0,0.00,0,0,0,0,30612,50000,7289,48058,0,0,0,0,0.00,0.00,0.00,0.00
2013-08-10 22:50:00,0,41929,0,0.00,0,0,0,0,30083,50000,6701,43592,0,0,0,0,0.00,0.00,0.00,0.00
2013-08-10 23:00:00,0,45117,0,0.00,0,0,0,0,29860,50000,5505,46263,0,0,0,0,0.00,0.00,0.00,0.00
2013-08-10 23:10:00,0,45468,0,0.00,0,0,0,0,35688,50000,5237,47356,0,0,0,0,0.00,0.00,0.00,0.00
2013-08-10 23:20:00,0,42269,0,0.00,0,0,0,0,25028,50000,7899,45531,0,0,0,0,0.00,0.00,0.00,0.00
2013-08-10 23:30:00,0,41091,0,0.00,0,0,0,0,29757,49990,6374,40847,0,0,0,0,0.00,0.00,0.00,0.00
2013-08-10 23:40:00,0,38821,0,0.00,0,0,0,0,25804,45717,5415,38752,0,0,0,0,0.00,0.00,0.00,0.00
2013-08-10 23:50:00,0,43788,0,0.00,0,0,0,0,37035,50000,3477,43338,0,0,0,0,0.00,0.00,0.00,0.00
